Temp
6 5 5 5 4 3 3 2 1 1 0 2 4 3 3 2 2 2 2 2 1 1 2 2 2 2 2 3 3 3 3 3 4 5 5 5 5 6
6 5 5 4 4 3 3 3 2 1 -0 2 2 3 2 2 2 2 2 1 1 1 1 1 2 2 1 2 2 2 2 2 3 4 4 4 4 5
6 5 5 4 4 3 3 2 2 1 -1 1 1 2 2 2 2 1 1 1 1 1 0 1 2 1 1 1 2 1 1 1 2 3 3 3 3 4
6 5 5 4 4 3 3 2 2 2 0 -1 0 1 1 1 1 1 1 1 0 0 -0 0 1 0 0 0 1 1 0 1 1 2 2 2 2 3
6 6 6 5 4 3 3 2 2 2 1 -0 -1 -0 -0 0 0 0 0 -0 -0 0 -0 -1 -1 -1 -1 -0 -0 -0 -0 0 0 1 1 1 1 1
5 5 6 5 4 4 3 3 2 1 1 -1 -1 -1 -1 -0 -1 -1 -1 -1 -1 -0 -0 -1 -1 -1 -1 -1 -1 -1 -1 -0 -0 0 0 0 0 0
5 5 5 5 5 5 3 3 2 1 -0 -2 -2 -2 -2 -2 -1 -1 -2 -1 -1 -0 -1 -1 -1 -1 -1 -1 -1 -0 -1 -1 -0 -1 -1 -1 -0 -0
3 4 4 4 5 5 3 3 3 1 -1 -2 -2 -2 -2 -1 -1 -1 -2 -2 -2 -1 -2 -2 -1 -1 -1 -1 -1 -1 -2 -1 -1 -1 -1 -1 -1 -1
3 2 2 3 3 4 3 2 1 0 0 1 -1 -1 -1 -1 -1 -1 -2 -2 -2 -2 -2 -2 -2 -1 -1 -1 -1 -1 -1 -1 -1 -2 -2 -2 -2 -2
2 2 2 2 2 3 3 2 2 2 1 0 0 0 0 -0 -1 -1 -1 -2 -2 -2 -2 -4 -2 -2 -2 -2 -2 -2 -2 -2 -2 -2 -2 -2 -2 -2
1 2 2 1 2 1 1 1 1 1 1 1 1 0 -0 -1 -1 -1 -2 -3 -3 -2 -2 -3 -3 -3 -3 -3 -3 -2 -2 -2 -3 -3 -3 -3 -3 -3
-0 0 1 1 1 1 1 0 -0 -0 -1 0 -0 -1 -1 -1 -1 -1 -2 -3 -3 -4 -3 -4 -4 -4 -4 -3 -3 -3 -2 -3 -3 -3 -4 -4 -4 -4
0 0 0 1 1 0 1 0 -0 0 -2 -0 -1 -1 -1 -1 -1 -2 -2 -3 -3 -4 -3 -4 -4 -4 -4 -4 -4 -4 -4 -3 -3 -3 -3 -3 -4 -4
-0 1 0 0 -0 0 0 -0 -1 -1 -2 -2 -2 -2 -1 -1 -1 -2 -2 -3 -3 -3 -3 -4 -5 -5 -5 -5 -5 -4 -4 -4 -4 -4 -4 -3 -3 -3
-1 0 0 -1 -1 -1 0 0 -0 -1 -1 -2 -2 -2 -1 -1 -2 -3 -3 -3 -4 -4 -4 -4 -5 -5 -5 -6 -6 -6 -6 -5 -4 -3 -3 -3 -3 -3
-1 -1 -1 -1 -1 -1 -1 -1 -1 -1 -1 -2 -2 -1 -1 -2 -3 -3 -3 -4 -4 -4 -4 -5 -5 -6 -6 -6 -7 -7 -6 -6 -3 -3 -4 -3 -3 -3
-1 -1 -1 -1 -1 -1 -2 -2 -1 -1 -2 -1 -2 -2 -3 -3 -3 -3 -4 -4 -5 -5 -5 -5 -5 -6 -6 -6 -7 -7 -6 -6 -5 -5 -5 -5 -4 -3
0 -1 -1 -1 -1 -2 -2 -2 -2 -2 -2 -1 -2 -2 -3 -3 -3 -4 -4 -5 -5 -5 -6 -6 -6 -7 -7 -5 -5 -5 -6 -6 -5 -5 -5 -7 -6 -4
-0 -1 -1 -1 -2 -2 -2 -2 -3 -2 -2 -2 -2 -3 -3 -3 -4 -4 -5 -5 -6 -6 -6 -6 -6 -8 -9 -9 -6 -5 -6 -5 -5 -6 -6 -6 -7 -5
-1 -1 -2 -2 -2 -2 -2 -2 -2 -3 -2 -2 -3 -3 -3 -4 -4 -5 -5 -5 -6 -6 -6 -6 -6 -7 -9 -10 -9 -6 -5 -6 -6 -7 -6 -6 -6 -6
-2 -1 -2 -2 -2 -2 -2 -2 -3 -3 -3 -3 -3 -3 -3 -4 -5 -5 -5 -6 -6 -6 -7 -7 -6 -7 -7 -8 -9 -7 -6 -6 -6 -6 -6 -7 -6 -6
-2 -2 -2 -2 -2 -3 -3 -3 -3 -3 -3 -3 -3 -3 -4 -4 -5 -5 -6 -6 -6 -6 -6 -6 -6 -7 -8 -8 -7 -7 -6 -5 -5 -5 -5 -5 -5 -5
-2 -2 -2 -2 -2 -3 -3 -3 -3 -3 -3 -3 -3 -4 -4 -5 -5 -5 -6 -6 -7 -7 -7 -7 -7 -7 -8 -8 -7 -6 -6 -6 -6 -5 -5 -5 -5 -5
Height
793 792 791 791 791 791 791 792 794 794 789 781 780 779 779 778 776 773 771 769 767 766 765 763 761 760 756 753 751 748 745 742 739 735 733 730 727 724
788 788 786 785 785 786 786 786 786 787 788 779 777 776 775 775 773 770 768 766 764 763 761 760 758 757 755 752 749 747 744 741 738 735 732 730 727 727
781 781 779 779 778 778 779 780 780 781 780 775 772 772 771 770 768 767 765 763 761 759 758 756 755 753 751 750 748 746 743 741 739 736 732 731 729 727
771 771 770 770 771 771 772 772 772 772 773 770 767 766 766 764 763 762 760 759 757 755 753 752 751 750 748 746 746 744 741 740 738 736 733 730 728 726
761 760 759 760 760 760 762 763 763 764 764 763 762 761 759 759 758 758 757 755 754 751 748 747 746 746 744 742 742 741 739 737 737 735 732 729 726 724
752 751 750 750 750 751 753 753 755 756 757 757 756 756 755 755 754 753 752 750 749 747 743 743 743 741 739 738 738 737 736 735 735 734 731 728 724 722
742 740 739 739 739 741 742 743 745 746 748 750 751 750 749 750 750 749 747 746 745 743 741 740 738 736 735 734 733 733 732 732 732 731 729 727 724 722
732 730 728 728 729 731 732 733 736 738 740 742 742 743 743 744 745 744 743 744 742 740 739 736 735 732 731 730 729 727 726 727 728 728 727 724 722 720
723 721 719 717 717 718 721 724 727 728 729 732 732 734 736 738 739 739 739 739 739 737 737 732 731 728 727 726 724 723 723 723 724 723 723 720 718 716
713 711 709 708 709 709 710 713 716 719 722 724 725 727 729 732 733 733 733 734 733 733 733 730 726 724 723 721 719 720 720 721 721 720 717 715 714 712
705 702 700 698 697 701 701 702 706 708 714 717 719 721 723 725 727 728 728 730 729 727 728 727 725 723 719 717 717 718 718 718 718 717 714 712 710 709
698 694 691 689 688 690 693 694 697 699 705 709 712 715 718 720 722 722 723 724 726 725 723 725 723 723 719 716 716 717 717 716 715 713 711 709 708 706
691 686 683 680 680 682 685 686 687 693 697 702 705 708 711 713 715 717 718 719 720 720 721 721 720 721 722 718 713 712 712 710 708 706 705 704 703 703
685 680 676 674 674 675 678 679 683 687 690 695 699 701 704 707 709 711 713 713 713 715 717 718 717 717 717 717 713 707 705 703 702 700 699 699 698 696
679 674 669 668 668 668 670 673 676 679 684 688 692 695 698 701 704 706 707 708 709 710 712 713 713 713 713 712 711 706 704 699 697 695 694 693 691 689
670 666 663 661 663 663 665 667 669 673 676 681 686 689 694 696 699 700 702 704 706 707 708 708 708 708 708 707 707 703 703 702 693 692 690 687 686 686
663 660 659 657 657 659 660 662 666 670 673 677 681 684 688 692 694 695 698 700 701 702 703 703 703 703 703 702 700 696 694 692 691 690 688 685 683 681
657 655 655 654 653 654 657 660 663 666 670 673 677 680 684 686 689 691 693 695 697 697 698 699 699 698 697 693 691 689 689 687 686 685 685 684 680 676
651 650 650 650 650 651 652 655 659 663 666 669 672 676 679 681 684 686 689 691 692 693 694 695 695 695 695 693 687 686 684 683 681 679 679 678 675 669
647 645 645 645 645 647 648 651 655 659 662 665 668 671 673 676 679 682 684 686 687 689 690 690 689 690 690 689 684 679 680 678 677 674 671 669 667 666
643 640 640 641 641 644 646 648 651 655 658 661 663 666 668 672 674 677 680 682 683 683 684 684 685 686 684 684 682 675 672 673 672 670 666 665 663 660
638 636 635 636 637 639 641 644 647 651 653 655 659 661 664 667 670 673 675 677 678 679 679 679 680 680 681 680 677 673 667 664 664 663 661 660 658 652
633 632 631 630 632 634 637 640 643 646 648 651 654 657 661 663 666 669 671 672 674 675 675 674 673 674 673 673 672 668 665 661 657 652 648 648 646 644
Wind_Speed
21 19 20 19 19 19 19 18 9 2 3 4 4 6 11 17 15 15 14 11 9 11 12 12 11 13 14 13 12 13 15 14 13 14 15 16 17 17
25 23 23 22 20 20 20 20 21 16 4 7 7 13 24 20 14 14 14 11 11 12 12 12 11 12 14 13 11 12 14 14 13 13 15 15 15 15
29 27 28 26 23 23 22 22 22 22 11 20 22 25 25 19 16 15 13 13 12 14 12 13 10 11 12 12 11 10 11 12 12 10 12 13 13 13
33 32 32 30 28 27 24 25 25 25 23 18 21 25 22 19 17 16 14 13 12 14 14 13 9 11 13 13 11 10 10 10 10 8 9 11 13 13
38 36 35 33 32 31 29 29 28 26 25 24 17 18 20 19 17 14 15 13 12 16 15 10 9 12 14 14 12 10 10 8 9 7 8 10 12 13
38 39 38 37 36 34 33 32 30 27 26 25 21 21 19 18 15 15 15 14 17 16 10 3 12 15 15 12 11 11 8 7 7 5 8 10 12 12
36 38 40 41 39 36 34 34 32 30 26 21 16 14 14 16 13 10 13 16 17 12 6 13 17 16 14 10 10 9 11 10 6 4 8 10 10 11
36 38 38 40 40 37 33 32 33 32 25 18 16 15 16 17 15 13 12 9 3 5 7 21 20 17 12 11 11 15 13 8 5 4 10 12 9 11
38 38 37 37 38 39 34 31 28 26 27 28 21 24 21 19 15 15 13 12 11 17 16 18 18 17 13 11 17 7 6 4 3 8 14 10 12 14
35 38 40 37 36 36 34 35 34 33 30 28 28 27 23 17 16 17 16 14 15 18 15 6 9 15 11 16 5 2 4 1 6 13 16 13 17 16
33 35 37 38 37 31 30 31 31 34 31 30 29 24 22 19 14 16 15 10 5 6 6 10 6 10 15 6 5 6 7 10 13 15 11 15 16 13
30 32 34 33 30 29 31 31 25 28 27 28 24 20 19 18 15 14 14 11 8 5 3 6 2 5 6 4 3 11 11 16 13 17 15 13 10 13
27 28 31 31 31 28 30 30 32 25 21 24 22 22 21 20 19 18 17 16 15 14 8 5 3 2 3 7 15 16 13 16 24 20 14 14 10 8
29 30 30 29 24 27 28 28 25 21 20 21 20 20 21 20 19 17 16 17 17 17 14 11 6 7 9 8 9 13 23 26 17 21 15 10 18 16
26 28 26 23 23 24 28 24 25 24 21 19 17 19 22 18 14 14 13 12 12 13 12 11 13 14 14 12 12 18 16 15 23 10 23 24 23 21
28 27 25 25 24 24 24 25 23 21 23 21 19 21 17 15 15 14 14 12 12 13 11 10 10 11 14 16 15 20 17 10 22 27 25 24 23 21
24 21 19 18 18 18 18 19 18 20 19 20 20 17 15 15 15 14 15 14 13 11 12 10 8 9 14 18 16 19 22 23 23 22 21 24 26 26
23 15 15 15 15 16 16 17 20 18 20 20 17 16 18 17 16 15 17 17 15 13 13 10 11 11 7 10 16 23 18 20 21 20 20 16 21 28
17 15 14 13 13 16 19 19 17 21 21 20 20 20 19 17 14 16 18 16 14 13 13 12 12 7 2 3 9 14 21 22 23 24 21 18 20 30
16 18 13 15 16 17 19 19 20 19 20 20 19 19 17 18 17 17 16 15 14 13 15 15 14 12 8 4 4 18 18 21 21 21 24 26 25 21
16 17 17 18 18 20 20 19 18 17 19 19 19 19 19 19 19 17 15 13 13 14 12 13 15 10 12 12 8 16 24 17 19 24 25 20 20 19
18 19 17 20 20 21 21 19 18 17 18 19 19 19 19 20 20 17 16 15 15 16 17 19 18 14 12 12 12 17 21 25 22 22 24 26 22 5
20 19 20 22 22 21 20 19 18 18 19 18 17 19 19 20 19 16 16 14 14 15 17 19 18 15 16 16 16 17 20 26 26 27 27 23 22 25
Wind_Direction
265 261 259 260 256 254 251 247 218 279 294 277 270 230 314 332 332 329 331 323 326 337 335 329 329 337 342 343 345 350 356 358 358 2 4 7 5 2
266 263 262 260 257 251 248 244 238 228 236 246 256 275 303 316 319 320 320 319 311 320 324 318 309 319 328 331 334 341 348 354 354 356 3 3 7 2
264 262 262 260 256 250 247 244 242 236 234 264 273 284 296 308 313 316 312 310 303 315 319 315 296 312 322 323 324 331 340 345 348 348 356 359 360 2
263 260 258 258 252 250 245 243 242 242 236 252 272 282 290 302 310 312 314 311 297 309 312 314 286 301 315 314 310 315 328 335 340 344 350 356 356 359
265 260 259 255 250 247 242 242 242 242 242 245 261 275 286 298 306 305 312 312 309 315 307 287 285 305 307 303 296 303 310 325 333 335 348 351 353 356
270 264 260 255 252 248 244 243 243 240 241 244 253 264 277 288 291 296 305 312 316 322 315 260 311 310 305 296 288 296 305 309 324 330 347 347 351 352
275 269 263 258 255 251 245 244 239 236 235 234 241 251 257 271 271 288 293 310 313 308 285 316 322 321 315 289 287 284 303 288 299 325 344 343 347 348
273 273 268 262 256 250 243 243 244 232 226 220 233 231 246 261 272 273 289 297 315 285 289 307 316 311 310 297 301 303 295 269 249 319 330 335 340 340
275 271 265 262 254 248 237 232 230 230 234 242 231 241 249 258 263 271 271 266 259 286 297 293 300 301 310 292 311 301 306 195 246 323 334 339 339 335
275 273 267 261 259 250 243 231 226 228 230 230 241 252 256 254 262 267 269 269 279 294 292 270 286 294 307 311 266 49 130 211 321 322 326 323 329 328
283 280 269 260 259 244 231 226 226 230 234 236 247 249 253 256 255 256 235 255 279 277 272 253 280 313 318 322 201 225 252 289 305 312 315 311 315 313
289 279 272 256 248 238 221 220 217 228 231 237 237 238 236 240 243 239 249 245 248 295 217 208 248 347 329 315 165 305 288 294 293 310 306 306 301 302
292 280 266 258 243 237 224 219 224 232 220 235 238 235 235 239 243 242 246 250 240 234 252 234 220 237 246 290 301 301 302 311 314 316 320 316 307 301
296 283 269 260 250 233 227 224 223 222 219 222 223 228 231 237 242 243 249 254 249 251 247 259 260 250 261 277 279 299 306 312 316 315 319 328 320 312
298 293 269 253 240 238 232 225 226 211 203 202 209 219 234 245 247 240 239 232 240 248 254 265 273 275 268 256 274 288 308 303 311 320 319 319 320 321
293 307 291 250 236 225 235 236 217 214 198 202 209 226 232 234 231 234 221 222 238 251 259 275 275 267 268 268 265 272 278 277 299 309 315 315 315 312
281 288 286 234 220 216 214 208 209 207 208 212 210 217 223 227 232 226 221 215 231 249 272 284 291 276 278 274 270 261 267 274 284 296 304 307 307 306
285 263 259 240 213 199 193 197 210 218 211 210 214 228 227 228 229 225 223 218 234 256 267 281 293 300 311 292 257 263 271 274 292 297 297 279 287 300
272 267 249 228 219 201 193 190 198 216 220 222 233 231 232 232 221 223 219 229 241 256 266 274 276 267 223 256 275 255 260 280 291 291 287 268 265 285
266 265 237 220 216 203 195 191 204 217 218 228 232 227 223 218 212 218 219 231 244 257 262 267 271 264 214 231 272 288 287 277 281 278 282 290 288 287
288 254 241 229 219 218 215 216 213 227 229 219 225 223 216 214 217 222 230 235 247 248 242 258 283 297 288 291 281 278 293 293 277 272 275 277 283 286
285 268 239 238 227 222 222 222 217 219 215 218 222 223 219 219 220 222 230 236 250 263 272 283 292 297 280 246 260 275 289 301 293 280 269 265 264 262
281 276 251 240 236 230 228 217 218 222 223 221 221 220 218 216 218 228 233 242 251 261 272 284 294 293 274 255 262 268 278 288 296 302 299 297 281 270